Consulta los datos en tiempo real de la estación municipal de St. Hilari Sacalm
| Hora UTC | 20:00 |
|---|---|
| Temperatura | 13.0 ºC |
| Humedad | 71.3 % |
| Presión | 1011.2 hPa |
| Pluja | 0.1 mm |
| Velocidad viento | 12.0 km/h |
| Dirección viento | WSW |
| Radiación solar | 0.1 W/m² |
| Temperatura (ºC) | Humedad (%) | Presión (hPa) | Velocidad viento (km/h) | Precipitación (mm) | Radiación solar (W/m²) | |||||||||||||
|---|---|---|---|---|---|---|---|---|---|---|---|---|---|---|---|---|---|---|
| Hora UTC | Aire | Humedad | Presión | Vel. | Dir. | Vel. Max | Dir. | Intent. máx 5 min. | Rad. Sol. | |||||||||
| 00:05 | 9.8 | 97.4 | 1013.0 | 8.3 | WNW | 8.3 | WNW | 0.0 | 0.1 | |||||||||
| 00:10 | 9.7 | 97.3 | 1012.9 | 5.4 | NW | 14.2 | NW | 0.0 | 0.1 | |||||||||
| 00:15 | 9.6 | 97.3 | 1012.9 | 7.1 | NW | 16.9 | NW | 0.0 | 0.1 | |||||||||
| 00:20 | 9.5 | 97.3 | 1012.8 | 5.3 | NW | 14.2 | NNW | 0.0 | 0.1 | |||||||||
| 00:25 | 9.4 | 97.4 | 1012.7 | 2.4 | WNW | 14.2 | NNW | 0.0 | 0.1 | |||||||||
| 00:30 | 9.4 | 97.4 | 1012.6 | 0.8 | NW | 11.5 | W | 0.0 | 0.1 | |||||||||
| 00:35 | 9.2 | 97.4 | 1012.6 | 1.4 | NW | 11.5 | NW | 0.0 | 0.1 | |||||||||
| 00:40 | 9.2 | 97.5 | 1012.4 | 3.0 | WNW | 14.2 | W | 0.0 | 0.1 | |||||||||
| 00:45 | 9.1 | 97.5 | 1012.4 | 3.2 | WNW | 11.5 | W | 0.0 | 0.1 | |||||||||
| 00:50 | 9.0 | 97.4 | 1012.4 | 1.4 | WNW | 11.5 | W | 0.0 | 0.1 | |||||||||
| 00:55 | 9.0 | 97.5 | 1012.3 | 0.2 | NW | 6.1 | WNW | 0.0 | 0.1 | |||||||||
| 01:00 | 8.9 | 97.5 | 1012.2 | 0.1 | W | 6.1 | W | 0.0 | 0.1 | |||||||||
| 01:05 | 8.8 | 97.6 | 1012.2 | 0.0 | NNE | 0.0 | W | 0.0 | 0.1 | |||||||||
| 01:10 | 8.7 | 97.5 | 1012.2 | 0.0 | NNE | 0.0 | W | 0.0 | 0.1 | |||||||||
| 01:15 | 8.6 | 97.6 | 1012.2 | 0.0 | NNE | 0.0 | WNW | 0.0 | 0.1 | |||||||||
| 01:20 | 8.6 | 97.6 | 1012.2 | 0.0 | WSW | 3.4 | W | 0.0 | 0.1 | |||||||||
| 01:25 | 8.5 | 97.7 | 1012.1 | 0.0 | NNE | 0.0 | WSW | 0.0 | 0.1 | |||||||||
| 01:30 | 8.5 | 97.7 | 1012.1 | 0.0 | NNE | 0.0 | SW | 0.0 | 0.1 | |||||||||
| 01:35 | 8.4 | 97.7 | 1012.0 | 0.2 | WSW | 8.8 | W | 0.0 | 0.1 | |||||||||
| 01:40 | 8.5 | 97.8 | 1012.0 | 0.7 | WSW | 8.8 | W | 0.0 | 0.1 | |||||||||
| 01:45 | 8.5 | 97.8 | 1012.0 | 0.0 | NNE | 0.0 | W | 0.0 | 0.1 | |||||||||
| 01:50 | 8.4 | 97.7 | 1012.0 | 0.0 | NNE | 0.0 | W | 0.0 | 0.1 | |||||||||
| 01:55 | 8.4 | 97.8 | 1012.0 | 0.0 | NNE | 0.0 | SW | 0.0 | 0.1 | |||||||||
| 02:00 | 8.5 | 98.1 | 1011.9 | 0.0 | NNE | 0.0 | SW | 0.0 | 0.1 | |||||||||
| 02:05 | 8.5 | 97.9 | 1011.9 | 0.0 | NNE | 0.0 | SW | 0.0 | 0.1 | |||||||||
| 02:10 | 8.5 | 97.9 | 1011.9 | 0.4 | SSW | 11.5 | SW | 0.0 | 0.1 | |||||||||
| 02:15 | 8.6 | 98.1 | 1011.8 | 1.9 | SW | 14.2 | SW | 0.0 | 0.1 | |||||||||
| 02:20 | 8.9 | 98.2 | 1011.7 | 8.0 | WSW | 25.0 | WSW | 0.0 | 0.1 | |||||||||
| 02:25 | 9.0 | 98.0 | 1011.6 | 7.1 | WSW | 22.3 | W | 0.0 | 0.1 | |||||||||
| 02:30 | 9.0 | 97.8 | 1011.6 | 8.2 | WSW | 22.3 | WNW | 0.0 | 0.1 | |||||||||
| 02:35 | 9.1 | 97.7 | 1011.6 | 9.3 | WSW | 22.3 | W | 0.0 | 0.1 | |||||||||
| 02:40 | 9.1 | 97.6 | 1011.6 | 8.8 | WSW | 27.7 | SW | 0.0 | 0.1 | |||||||||
| 02:45 | 9.3 | 97.5 | 1011.6 | 10.3 | WSW | 27.7 | SSW | 0.0 | 0.1 | |||||||||
| 02:50 | 9.3 | 97.2 | 1011.6 | 12.8 | WSW | 30.4 | WSW | 0.0 | 0.1 | |||||||||
| 02:55 | 9.3 | 97.0 | 1011.6 | 12.0 | W | 27.7 | WNW | 0.0 | 0.1 | |||||||||
| 03:00 | 9.3 | 96.7 | 1011.5 | 9.5 | W | 25.0 | WSW | 0.0 | 0.1 | |||||||||
| 03:05 | 9.2 | 96.5 | 1011.5 | 9.4 | W | 27.7 | WNW | 0.0 | 0.1 | |||||||||
| 03:10 | 9.1 | 96.5 | 1011.5 | 10.6 | W | 30.4 | W | 0.0 | 0.1 | |||||||||
| 03:15 | 9.1 | 96.4 | 1011.4 | 10.0 | W | 25.0 | WSW | 0.0 | 0.1 | |||||||||
| 03:20 | 9.1 | 96.4 | 1011.4 | 10.1 | W | 30.4 | WSW | 0.0 | 0.1 | |||||||||
| 03:25 | 9.0 | 96.4 | 1011.4 | 11.6 | W | 33.1 | W | 0.0 | 0.1 | |||||||||
| 03:30 | 9.0 | 96.4 | 1011.3 | 11.8 | W | 27.7 | W | 0.1 | 0.1 | |||||||||
| 03:35 | 9.0 | 96.5 | 1011.3 | 14.9 | W | 30.4 | W | 0.0 | 0.1 | |||||||||
| 03:40 | 9.1 | 96.4 | 1011.3 | 12.1 | W | 30.4 | W | 0.0 | 0.1 | |||||||||
| 03:45 | 9.1 | 96.4 | 1011.3 | 10.9 | W | 33.1 | WNW | 0.0 | 0.1 | |||||||||
| 03:50 | 9.1 | 96.3 | 1011.3 | 11.5 | W | 27.7 | WNW | 0.0 | 0.1 | |||||||||
| 03:55 | 9.1 | 96.3 | 1011.3 | 9.3 | W | 22.3 | WSW | 0.0 | 0.1 | |||||||||
| 04:00 | 9.1 | 96.2 | 1011.3 | 11.5 | WNW | 25.0 | W | 0.0 | 0.1 | |||||||||
| 04:05 | 9.1 | 96.2 | 1011.3 | 10.9 | WNW | 27.7 | NW | 0.0 | 0.1 | |||||||||
| 04:10 | 9.1 | 96.1 | 1011.3 | 12.4 | W | 27.7 | WSW | 0.0 | 0.1 | |||||||||
| 04:15 | 9.0 | 96.1 | 1011.3 | 7.9 | W | 25.0 | SW | 0.0 | 0.1 | |||||||||
| 04:20 | 9.0 | 96.1 | 1011.4 | 8.2 | W | 22.3 | WSW | 0.0 | 0.3 | |||||||||
| 04:25 | 9.0 | 96.2 | 1011.4 | 7.1 | W | 22.3 | SSW | 0.0 | 0.7 | |||||||||
| 04:30 | 9.0 | 96.2 | 1011.4 | 11.2 | W | 27.7 | WSW | 0.0 | 1.5 | |||||||||
| 04:35 | 9.0 | 96.4 | 1011.4 | 9.3 | W | 22.3 | NW | 0.0 | 2.7 | |||||||||
| 04:40 | 9.0 | 96.3 | 1011.4 | 7.9 | W | 25.0 | WNW | 0.0 | 4.5 | |||||||||
| 04:45 | 9.0 | 96.3 | 1011.4 | 4.7 | WNW | 22.3 | WNW | 0.0 | 6.9 | |||||||||
| 04:50 | 9.0 | 96.2 | 1011.3 | 6.5 | W | 16.9 | W | 0.0 | 9.1 | |||||||||
| 04:55 | 9.0 | 96.2 | 1011.3 | 5.5 | W | 16.9 | W | 0.0 | 11.7 | |||||||||
| 05:00 | 9.0 | 96.2 | 1011.3 | 7.1 | W | 30.4 | WNW | 0.0 | 14.5 | |||||||||
| 05:05 | 9.0 | 96.2 | 1011.4 | 7.6 | WSW | 16.9 | W | 0.0 | 34.9 | |||||||||
| 05:10 | 9.1 | 96.2 | 1011.3 | 6.9 | W | 19.6 | WNW | 0.0 | 75.8 | |||||||||
| 05:15 | 9.3 | 95.7 | 1011.3 | 4.8 | WNW | 11.5 | NW | 0.0 | 88.2 | |||||||||
| 05:20 | 9.7 | 94.7 | 1011.3 | 5.6 | NW | 14.2 | NW | 0.0 | 101.0 | |||||||||
| 05:25 | 10.0 | 93.7 | 1011.4 | 5.8 | NW | 14.2 | WNW | 0.0 | 113.8 | |||||||||
| 05:30 | 10.2 | 93.0 | 1011.4 | 4.5 | NW | 11.5 | NNW | 0.0 | 115.7 | |||||||||
| 05:35 | 10.4 | 92.1 | 1011.4 | 5.5 | NW | 14.2 | WNW | 0.0 | 113.9 | |||||||||
| 05:40 | 10.6 | 91.2 | 1011.4 | 1.7 | NW | 11.5 | W | 0.0 | 153.8 | |||||||||
| 05:45 | 10.8 | 90.3 | 1011.4 | 3.5 | NW | 11.5 | WNW | 0.0 | 168.5 | |||||||||
| 05:50 | 11.1 | 89.3 | 1011.4 | 2.4 | WNW | 8.8 | WSW | 0.0 | 183.1 | |||||||||
| 05:55 | 11.6 | 88.1 | 1011.4 | 0.0 | NNE | 0.0 | NNW | 0.0 | 198.1 | |||||||||
| 06:00 | 12.2 | 85.9 | 1011.4 | 1.6 | WNW | 8.8 | WNW | 0.0 | 214.0 | |||||||||
| 06:05 | 12.2 | 83.3 | 1011.4 | 6.3 | WNW | 16.9 | NW | 0.0 | 229.9 | |||||||||
| 06:10 | 12.1 | 82.9 | 1011.4 | 8.9 | WNW | 25.0 | W | 0.0 | 246.3 | |||||||||
| 06:15 | 12.0 | 83.0 | 1011.4 | 11.1 | WNW | 30.4 | WSW | 0.0 | 261.3 | |||||||||
| 06:20 | 11.9 | 83.4 | 1011.5 | 9.7 | WNW | 25.0 | SW | 0.0 | 277.0 | |||||||||
| 06:25 | 12.1 | 83.2 | 1011.5 | 11.4 | WNW | 22.3 | W | 0.0 | 293.4 | |||||||||
| 06:30 | 12.2 | 83.0 | 1011.5 | 11.0 | WNW | 22.3 | WNW | 0.0 | 309.8 | |||||||||
| 06:35 | 12.3 | 82.5 | 1011.5 | 9.1 | WNW | 27.7 | NW | 0.0 | 326.1 | |||||||||
| 06:40 | 12.5 | 81.4 | 1011.5 | 10.9 | WNW | 30.4 | W | 0.0 | 342.5 | |||||||||
| 06:45 | 12.5 | 80.7 | 1011.5 | 15.5 | WNW | 33.1 | NW | 0.0 | 358.6 | |||||||||
| 06:50 | 12.4 | 81.0 | 1011.6 | 15.4 | WNW | 30.4 | NW | 0.0 | 375.0 | |||||||||
| 06:55 | 12.4 | 80.5 | 1011.5 | 16.0 | WNW | 30.4 | NW | 0.0 | 391.1 | |||||||||
| 07:00 | 12.6 | 80.1 | 1011.6 | 13.8 | WNW | 27.7 | WNW | 0.0 | 407.6 | |||||||||
| 07:05 | 12.8 | 79.8 | 1011.6 | 14.0 | WNW | 27.7 | WNW | 0.0 | 423.4 | |||||||||
| 07:10 | 12.8 | 79.2 | 1011.6 | 15.2 | WNW | 33.1 | NW | 0.0 | 439.2 | |||||||||
| 07:15 | 13.2 | 78.5 | 1011.6 | 13.6 | WNW | 25.0 | W | 0.0 | 455.2 | |||||||||
| 07:20 | 13.2 | 77.7 | 1011.6 | 13.5 | WNW | 25.0 | WNW | 0.0 | 471.0 | |||||||||
| 07:25 | 13.7 | 76.8 | 1011.7 | 12.1 | WNW | 25.0 | WNW | 0.0 | 486.6 | |||||||||
| 07:30 | 14.1 | 75.2 | 1011.7 | 9.3 | WNW | 25.0 | WSW | 0.0 | 502.7 | |||||||||
| 07:35 | 14.3 | 74.1 | 1011.8 | 11.7 | WNW | 25.0 | SW | 0.0 | 518.4 | |||||||||
| 07:40 | 14.4 | 74.0 | 1011.8 | 11.2 | WNW | 25.0 | WNW | 0.0 | 533.9 | |||||||||
| 07:45 | 14.3 | 73.9 | 1011.8 | 11.7 | WNW | 22.3 | W | 0.0 | 548.7 | |||||||||
| 07:50 | 14.2 | 75.0 | 1011.9 | 12.9 | WNW | 25.0 | SW | 0.0 | 563.5 | |||||||||
| 07:55 | 14.4 | 73.8 | 1011.9 | 9.7 | WNW | 25.0 | W | 0.0 | 578.6 | |||||||||
| 08:00 | 15.0 | 71.6 | 1011.9 | 9.6 | WNW | 25.0 | NW | 0.0 | 592.7 | |||||||||
| 08:05 | 15.4 | 69.9 | 1012.0 | 9.4 | W | 22.3 | W | 0.0 | 606.9 | |||||||||
| 08:10 | 15.8 | 66.7 | 1012.0 | 11.2 | W | 27.7 | WSW | 0.0 | 620.6 | |||||||||
| 08:15 | 16.2 | 66.8 | 1012.0 | 10.9 | WSW | 27.7 | WNW | 0.0 | 634.0 | |||||||||
| 08:20 | 16.3 | 65.3 | 1012.0 | 9.2 | WSW | 25.0 | SW | 0.0 | 625.9 | |||||||||
| 08:25 | 16.4 | 67.8 | 1012.1 | 8.2 | W | 27.7 | SW | 0.0 | 614.6 | |||||||||
| 08:30 | 16.7 | 65.6 | 1012.1 | 10.2 | W | 27.7 | SSW | 0.0 | 672.8 | |||||||||
| 08:35 | 17.0 | 64.7 | 1012.1 | 9.7 | WSW | 22.3 | WSW | 0.0 | 685.6 | |||||||||
| 08:40 | 17.1 | 65.0 | 1012.2 | 10.2 | W | 25.0 | WSW | 0.0 | 697.3 | |||||||||
| 08:45 | 17.0 | 65.0 | 1012.2 | 10.9 | W | 30.4 | WSW | 0.0 | 708.4 | |||||||||
| 08:50 | 17.0 | 66.0 | 1012.3 | 9.7 | W | 25.0 | W | 0.0 | 720.0 | |||||||||
| 08:55 | 17.5 | 65.3 | 1012.2 | 9.5 | WSW | 22.3 | SW | 0.0 | 732.4 | |||||||||
| 09:00 | 17.5 | 62.9 | 1012.3 | 12.1 | WSW | 25.0 | SSW | 0.0 | 743.8 | |||||||||
| 09:05 | 17.4 | 62.5 | 1012.3 | 11.9 | WSW | 27.7 | WSW | 0.0 | 753.2 | |||||||||
| 09:10 | 17.4 | 63.8 | 1012.4 | 10.8 | WSW | 25.0 | WSW | 0.0 | 763.6 | |||||||||
| 09:15 | 17.4 | 63.6 | 1012.4 | 13.0 | WSW | 30.4 | WNW | 0.0 | 774.5 | |||||||||
| 09:20 | 17.5 | 64.3 | 1012.4 | 12.4 | W | 30.4 | SW | 0.0 | 784.6 | |||||||||
| 09:25 | 17.4 | 66.8 | 1012.4 | 10.6 | W | 27.7 | SW | 0.0 | 793.6 | |||||||||
| 09:30 | 17.5 | 65.3 | 1012.4 | 12.8 | WSW | 33.1 | WSW | 0.0 | 803.0 | |||||||||
| 09:35 | 17.6 | 65.2 | 1012.4 | 13.5 | WSW | 30.4 | WSW | 0.0 | 813.0 | |||||||||
| 09:40 | 17.8 | 63.9 | 1012.4 | 13.4 | WSW | 33.1 | WSW | 0.0 | 823.0 | |||||||||
| 09:45 | 18.0 | 64.7 | 1012.4 | 12.5 | WSW | 25.0 | W | 0.0 | 831.0 | |||||||||
| 09:50 | 18.2 | 63.6 | 1012.4 | 14.6 | WSW | 33.1 | WNW | 0.0 | 841.0 | |||||||||
| 09:55 | 18.2 | 61.8 | 1012.5 | 13.8 | WSW | 27.7 | WSW | 0.0 | 848.0 | |||||||||
| 10:00 | 18.4 | 64.0 | 1012.6 | 10.6 | WSW | 22.3 | W | 0.0 | 856.0 | |||||||||
| 10:05 | 18.7 | 64.2 | 1012.6 | 9.8 | W | 25.0 | WNW | 0.0 | 860.0 | |||||||||
| 10:10 | 18.5 | 63.4 | 1012.6 | 10.1 | WSW | 25.0 | WNW | 0.0 | 872.0 | |||||||||
| 10:15 | 18.6 | 61.6 | 1012.6 | 11.6 | W | 27.7 | WNW | 0.0 | 867.0 | |||||||||
| 10:20 | 18.8 | 58.9 | 1012.6 | 11.7 | WSW | 30.4 | SSW | 0.0 | 890.0 | |||||||||
| 10:25 | 18.8 | 57.8 | 1012.6 | 10.8 | WSW | 30.4 | W | 0.0 | 894.0 | |||||||||
| 10:30 | 19.1 | 57.0 | 1012.5 | 9.8 | SW | 27.7 | SW | 0.0 | 896.0 | |||||||||
| 10:35 | 18.9 | 52.3 | 1012.5 | 18.8 | SW | 33.1 | SSW | 0.0 | 901.0 | |||||||||
| 10:40 | 18.2 | 53.2 | 1012.5 | 17.5 | SW | 35.8 | WSW | 0.0 | 904.0 | |||||||||
| 10:45 | 18.3 | 55.2 | 1012.4 | 15.5 | SW | 33.1 | SW | 0.0 | 911.0 | |||||||||
| 10:50 | 18.6 | 52.9 | 1012.4 | 15.7 | SW | 33.1 | SSW | 0.0 | 917.0 | |||||||||
| 10:55 | 18.8 | 55.0 | 1012.4 | 12.7 | SW | 33.1 | SW | 0.0 | 919.0 | |||||||||
| 11:00 | 18.7 | 52.8 | 1012.4 | 15.6 | SW | 35.8 | WSW | 0.0 | 930.0 | |||||||||
| 11:05 | 19.2 | 53.0 | 1012.4 | 14.6 | SW | 33.1 | WSW | 0.0 | 948.0 | |||||||||
| 11:10 | 19.2 | 51.7 | 1012.3 | 15.7 | SW | 35.8 | SW | 0.0 | 950.0 | |||||||||
| 11:15 | 19.2 | 51.0 | 1012.4 | 15.9 | SW | 33.1 | SW | 0.0 | 956.0 | |||||||||
| 11:20 | 19.0 | 51.2 | 1012.3 | 19.3 | SW | 38.5 | SSW | 0.0 | 960.0 | |||||||||
| 11:25 | 19.0 | 50.0 | 1012.3 | 17.7 | SW | 33.1 | SSW | 0.0 | 933.0 | |||||||||
| 11:30 | 19.5 | 50.2 | 1012.3 | 13.8 | SW | 30.4 | SSW | 0.0 | 870.0 | |||||||||
| 11:35 | 19.5 | 49.3 | 1012.3 | 14.7 | SW | 33.1 | WNW | 0.0 | 948.0 | |||||||||
| 11:40 | 19.7 | 48.9 | 1012.3 | 14.8 | SW | 35.8 | SSW | 0.0 | 971.0 | |||||||||
| 11:45 | 19.7 | 46.9 | 1012.3 | 19.4 | SW | 35.8 | SW | 0.0 | 929.0 | |||||||||
| 11:50 | 19.7 | 49.9 | 1012.3 | 13.4 | SW | 27.7 | SSW | 0.0 | 968.0 | |||||||||
| 11:55 | 19.6 | 48.1 | 1012.2 | 19.7 | SSW | 35.8 | SSW | 0.0 | 934.0 | |||||||||
| 12:00 | 19.0 | 50.1 | 1012.1 | 14.2 | SW | 33.1 | S | 0.0 | 941.0 | |||||||||
| 12:05 | 19.7 | 51.3 | 1012.1 | 10.8 | WSW | 33.1 | WNW | 0.0 | 904.0 | |||||||||
| 12:10 | 19.8 | 50.4 | 1012.0 | 10.7 | W | 25.0 | NW | 0.0 | 901.0 | |||||||||
| 12:15 | 19.8 | 50.0 | 1012.0 | 13.8 | WSW | 41.2 | SW | 0.0 | 887.0 | |||||||||
| 12:20 | 19.7 | 50.6 | 1011.9 | 13.1 | SW | 35.8 | W | 0.0 | 890.0 | |||||||||
| 12:25 | 19.9 | 49.5 | 1011.9 | 14.8 | WSW | 35.8 | WNW | 0.0 | 861.0 | |||||||||
| 12:30 | 19.8 | 46.8 | 1012.0 | 17.3 | SW | 35.8 | SW | 0.0 | 837.0 | |||||||||
| 12:35 | 19.5 | 46.5 | 1011.9 | 14.8 | WSW | 38.5 | WSW | 0.0 | 860.0 | |||||||||
| 12:40 | 19.7 | 46.8 | 1011.9 | 14.1 | SW | 33.1 | W | 0.0 | 891.0 | |||||||||
| 12:45 | 20.2 | 47.0 | 1011.9 | 14.4 | SW | 30.4 | WNW | 0.0 | 826.0 | |||||||||
| 12:50 | 20.2 | 46.5 | 1011.8 | 13.7 | SSW | 33.1 | SSW | 0.0 | 891.0 | |||||||||
| 12:55 | 20.0 | 45.6 | 1011.7 | 13.1 | SW | 27.7 | SSW | 0.0 | 913.0 | |||||||||
| 13:00 | 20.0 | 43.6 | 1011.7 | 18.8 | SSW | 38.5 | SSW | 0.0 | 913.0 | |||||||||
| 13:05 | 20.0 | 45.5 | 1011.7 | 14.5 | SW | 35.8 | SW | 0.0 | 882.0 | |||||||||
| 13:10 | 20.0 | 42.9 | 1011.6 | 14.5 | SSW | 33.1 | S | 0.0 | 869.0 | |||||||||
| 13:15 | 20.2 | 43.3 | 1011.6 | 13.1 | SW | 30.4 | W | 0.0 | 840.0 | |||||||||
| 13:20 | 20.3 | 43.5 | 1011.6 | 14.1 | SW | 35.8 | SW | 0.0 | 857.0 | |||||||||
| 13:25 | 20.3 | 44.1 | 1011.5 | 13.6 | W | 27.7 | W | 0.0 | 849.0 | |||||||||
| 13:30 | 20.1 | 44.1 | 1011.4 | 16.2 | WSW | 41.2 | SW | 0.0 | 843.0 | |||||||||
| 13:35 | 20.2 | 45.2 | 1011.5 | 14.9 | SW | 35.8 | W | 0.0 | 832.0 | |||||||||
| 13:40 | 20.0 | 43.7 | 1011.4 | 19.1 | SW | 43.9 | SSW | 0.0 | 819.0 | |||||||||
| 13:45 | 19.8 | 44.6 | 1011.4 | 16.8 | SW | 38.5 | SW | 0.0 | 811.0 | |||||||||
| 13:50 | 19.8 | 44.4 | 1011.3 | 18.9 | SW | 38.5 | SSW | 0.0 | 811.0 | |||||||||
| 13:55 | 19.9 | 44.0 | 1011.2 | 20.0 | SSW | 38.5 | SW | 0.0 | 820.0 | |||||||||
| 14:00 | 19.8 | 44.0 | 1011.2 | 18.3 | SSW | 38.5 | SSW | 0.0 | 839.0 | |||||||||
| 14:05 | 19.9 | 44.3 | 1011.1 | 17.5 | SSW | 43.9 | SW | 0.0 | 811.0 | |||||||||
| 14:10 | 20.3 | 45.0 | 1011.1 | 16.3 | SW | 38.5 | SSW | 0.0 | 788.8 | |||||||||
| 14:15 | 20.3 | 43.8 | 1011.0 | 20.1 | SW | 41.2 | S | 0.0 | 791.2 | |||||||||
| 14:20 | 20.2 | 46.3 | 1011.0 | 14.6 | WSW | 33.1 | WNW | 0.0 | 802.0 | |||||||||
| 14:25 | 20.3 | 47.3 | 1010.9 | 7.3 | WSW | 22.3 | WNW | 0.0 | 691.1 | |||||||||
| 14:30 | 20.5 | 46.0 | 1010.8 | 11.6 | W | 25.0 | NW | 0.0 | 732.5 | |||||||||
| 14:35 | 20.5 | 41.7 | 1010.7 | 15.2 | SW | 33.1 | SW | 0.0 | 707.0 | |||||||||
| 14:40 | 20.4 | 39.6 | 1010.7 | 17.0 | SSW | 33.1 | S | 0.0 | 695.0 | |||||||||
| 14:45 | 20.0 | 40.6 | 1010.6 | 17.4 | SSW | 35.8 | W | 0.0 | 661.2 | |||||||||
| 14:50 | 20.0 | 39.7 | 1010.6 | 16.9 | SW | 35.8 | SSW | 0.0 | 701.3 | |||||||||
| 14:55 | 20.2 | 40.0 | 1010.5 | 9.8 | SW | 25.0 | SSW | 0.0 | 673.5 | |||||||||
| 15:00 | 20.4 | 37.8 | 1010.4 | 16.4 | SSW | 33.1 | SW | 0.0 | 651.5 | |||||||||
| 15:05 | 20.1 | 38.3 | 1010.4 | 12.3 | WSW | 30.4 | W | 0.0 | 633.9 | |||||||||
| 15:10 | 20.3 | 38.8 | 1010.4 | 10.8 | SW | 25.0 | W | 0.0 | 625.2 | |||||||||
| 15:15 | 20.4 | 39.1 | 1010.4 | 13.2 | SW | 35.8 | SW | 0.0 | 613.4 | |||||||||
| 15:20 | 20.2 | 39.0 | 1010.4 | 16.6 | WSW | 38.5 | SW | 0.0 | 597.7 | |||||||||
| 15:25 | 20.1 | 39.7 | 1010.4 | 14.4 | SW | 33.1 | W | 0.0 | 582.1 | |||||||||
| 15:30 | 19.9 | 39.3 | 1010.3 | 14.0 | SW | 30.4 | WSW | 0.0 | 567.2 | |||||||||
| 15:35 | 19.7 | 39.7 | 1010.3 | 14.2 | WSW | 35.8 | WSW | 0.0 | 555.3 | |||||||||
| 15:40 | 19.6 | 38.8 | 1010.3 | 17.8 | WSW | 35.8 | W | 0.0 | 539.3 | |||||||||
| 15:45 | 19.6 | 39.6 | 1010.3 | 14.7 | SW | 30.4 | SW | 0.0 | 525.3 | |||||||||
| 15:50 | 19.6 | 38.3 | 1010.2 | 19.6 | SSW | 38.5 | S | 0.0 | 511.6 | |||||||||
| 15:55 | 19.5 | 38.9 | 1010.2 | 17.7 | SW | 38.5 | SW | 0.0 | 497.7 | |||||||||
| 16:00 | 19.4 | 39.4 | 1010.2 | 15.4 | SW | 33.1 | S | 0.0 | 483.3 | |||||||||
| 16:05 | 19.4 | 39.1 | 1010.2 | 15.3 | SSW | 35.8 | SW | 0.0 | 465.4 | |||||||||
| 16:10 | 19.3 | 38.7 | 1010.2 | 17.7 | SW | 41.2 | SW | 0.0 | 449.6 | |||||||||
| 16:15 | 19.3 | 39.8 | 1010.2 | 12.0 | WSW | 25.0 | SW | 0.0 | 432.9 | |||||||||
| 16:20 | 19.3 | 40.6 | 1010.1 | 11.8 | SSW | 27.7 | SSW | 0.0 | 418.5 | |||||||||
| 16:25 | 19.2 | 40.5 | 1010.2 | 15.1 | SW | 30.4 | WNW | 0.0 | 402.7 | |||||||||
| 16:30 | 19.0 | 41.0 | 1010.1 | 12.3 | SW | 22.3 | SSW | 0.0 | 393.2 | |||||||||
| 16:35 | 19.0 | 42.0 | 1010.1 | 12.3 | SSW | 25.0 | SSW | 0.0 | 282.3 | |||||||||
| 16:40 | 18.8 | 44.3 | 1010.0 | 14.8 | SSW | 27.7 | SSW | 0.0 | 383.8 | |||||||||
| 16:45 | 18.7 | 46.3 | 1010.1 | 11.1 | SSW | 25.0 | SW | 0.0 | 362.6 | |||||||||
| 16:50 | 18.6 | 46.9 | 1010.0 | 14.2 | SSW | 27.7 | SSW | 0.0 | 338.6 | |||||||||
| 16:55 | 18.5 | 47.5 | 1010.0 | 13.3 | SSW | 27.7 | SW | 0.0 | 323.8 | |||||||||
| 17:00 | 18.3 | 48.5 | 1010.1 | 14.0 | S | 30.4 | S | 0.0 | 229.5 | |||||||||
| 17:05 | 18.2 | 49.5 | 1010.1 | 13.0 | SSW | 27.7 | WSW | 0.0 | 66.5 | |||||||||
| 17:10 | 18.1 | 51.1 | 1010.2 | 10.9 | SSW | 19.6 | SW | 0.0 | 60.7 | |||||||||
| 17:15 | 18.0 | 52.7 | 1010.2 | 12.9 | SSW | 27.7 | S | 0.0 | 39.2 | |||||||||
| 17:20 | 17.7 | 55.3 | 1010.2 | 9.3 | S | 25.0 | S | 0.0 | 34.5 | |||||||||
| 17:25 | 17.5 | 56.5 | 1010.2 | 14.1 | SSW | 27.7 | S | 0.0 | 31.8 | |||||||||
| 17:30 | 17.3 | 56.7 | 1010.2 | 13.4 | SSW | 30.4 | SSW | 0.0 | 27.6 | |||||||||
| 17:35 | 17.2 | 57.2 | 1010.2 | 10.2 | S | 19.6 | S | 0.0 | 24.8 | |||||||||
| 17:40 | 17.0 | 58.0 | 1010.3 | 9.8 | SSW | 19.6 | SSE | 0.0 | 20.5 | |||||||||
| 17:45 | 16.8 | 57.7 | 1010.4 | 11.9 | SSW | 27.7 | WSW | 0.0 | 20.0 | |||||||||
| 17:50 | 16.6 | 58.5 | 1010.4 | 11.9 | SSW | 22.3 | SW | 0.0 | 19.4 | |||||||||
| 17:55 | 16.3 | 59.4 | 1010.5 | 10.3 | SSW | 25.0 | SSW | 0.0 | 19.4 | |||||||||
| 18:00 | 16.2 | 60.0 | 1010.6 | 8.4 | SSW | 19.6 | S | 0.0 | 20.8 | |||||||||
| 18:05 | 16.1 | 60.5 | 1010.6 | 11.0 | SSW | 19.6 | SSW | 0.0 | 23.4 | |||||||||
| 18:10 | 15.9 | 61.3 | 1010.7 | 10.6 | SSW | 22.3 | SSW | 0.0 | 24.0 | |||||||||
| 18:15 | 15.8 | 61.3 | 1010.7 | 8.5 | SSW | 22.3 | S | 0.0 | 17.8 | |||||||||
| 18:20 | 15.7 | 61.3 | 1010.8 | 10.9 | SSW | 19.6 | WSW | 0.0 | 17.5 | |||||||||
| 18:25 | 15.6 | 60.8 | 1010.8 | 11.6 | SW | 25.0 | SSW | 0.0 | 20.7 | |||||||||
| 18:30 | 15.6 | 59.5 | 1010.9 | 12.1 | SW | 27.7 | WSW | 0.0 | 14.9 | |||||||||
| 18:35 | 15.6 | 58.8 | 1010.9 | 15.2 | SW | 33.1 | SW | 0.0 | 20.1 | |||||||||
| 18:40 | 15.5 | 59.0 | 1011.0 | 13.4 | SW | 33.1 | WNW | 0.0 | 10.6 | |||||||||
| 18:45 | 15.4 | 61.0 | 1011.0 | 12.8 | SW | 35.8 | SW | 0.0 | 6.0 | |||||||||
| 18:50 | 15.0 | 64.1 | 1011.1 | 12.7 | WSW | 35.8 | WSW | 0.0 | 4.9 | |||||||||
| 18:55 | 14.5 | 67.9 | 1011.2 | 10.3 | WNW | 27.7 | W | 0.0 | 3.9 | |||||||||
| 19:00 | 14.0 | 70.8 | 1011.1 | 7.3 | W | 19.6 | W | 0.0 | 2.9 | |||||||||
| 19:05 | 13.8 | 71.6 | 1011.2 | 9.9 | WSW | 25.0 | S | 0.0 | 2.0 | |||||||||
| 19:10 | 13.8 | 71.4 | 1011.1 | 12.5 | SW | 27.7 | SW | 0.0 | 1.2 | |||||||||
| 19:15 | 13.7 | 71.4 | 1011.1 | 11.0 | SW | 25.0 | SSW | 0.0 | 0.6 | |||||||||
| 19:20 | 13.7 | 70.9 | 1011.1 | 14.9 | SW | 33.1 | W | 0.0 | 0.2 | |||||||||
| 19:25 | 13.6 | 71.0 | 1011.1 | 12.5 | SW | 27.7 | SW | 0.0 | 0.2 | |||||||||
| 19:30 | 13.6 | 70.8 | 1011.1 | 13.0 | WSW | 27.7 | WSW | 0.0 | 0.1 | |||||||||
| 19:35 | 13.5 | 70.8 | 1011.2 | 11.2 | SW | 27.7 | WSW | 0.0 | 0.2 | |||||||||
| 19:40 | 13.4 | 70.0 | 1011.2 | 15.1 | SW | 33.1 | SW | 0.0 | 0.1 | |||||||||
| 19:45 | 13.5 | 68.7 | 1011.3 | 17.3 | SW | 38.5 | W | 0.0 | 0.2 | |||||||||
| 19:50 | 13.4 | 69.0 | 1011.3 | 13.0 | WSW | 33.1 | SW | 0.0 | 0.1 | |||||||||
| 19:55 | 13.2 | 70.0 | 1011.3 | 13.2 | WSW | 33.1 | WSW | 0.0 | 0.2 | |||||||||
| 20:00 | 13.0 | 71.3 | 1011.2 | 12.0 | WSW | 30.4 | SW | 0.0 | 0.1 | |||||||||
| Máxima | 20.5 | 98.2 | 1013.0 | 20.1 | SW | 43.9 | SW | 0.1 | 971.0 | |||||||||
| Mínima | 8.4 | 37.8 | 1010.0 | |||||||||||||||
| Total | 0.1 | |||||||||||||||||